STARLINK-32873, 62857

Orbit data source: Space-Track

STARLINK-32873, 62857 is a payload satellite owned by SpaceX/Seattle (US) in LEO that was launched on Sat, 01 Feb 2025 UTC via an FALCON 9 launch vehicle from the Air Force Western Test Range (AFWTR). Payload-class satellites include a variety of spacecraft equipped with specific instruments for various scientific and technological missions. These include communications satellites like Starlink; space stations such as the ISS; scientific satellites like the Hubble; Earth observation satellites from companies like Planet Labs, Umbra, and HawkEye 360; GPS; miniature CubeSats for education and research; and military/defense satellites.

Loading next visibility...
Identifier
62857, 2025-022D
Orbit
LEO
Last TLE update
23 hours ago
Origin
Manufacturer
SpaceX/Seattle
Mission
Operational Commercial Communications
Bus & Motor
STARLINK V2M, Unknown motor
Mass
730 kg wet, ~700 kg dry
Launch date (UTC)
2025-02-01 (3 months ago)
Launch vehicle
FALCON 9
Launch site
Air Force Western Test Range (AFWTR)
Object type
Payload
Rocket body
Debris
Shape & HBR
Box + 2 Pan, 29 m
Radar Cross Section
33.884 m², Large (>1 m²)

Expand to show TLE details & history

TLE from 23 hours ago
0 STARLINK-32873
1 62857U 25022D   25128.38224018  .00000296  00000-0  17392-4 0  9998
2 62857  53.1608 112.1843 0001217  97.1146 262.9997 15.39613446 15093
Epoch: 2025-05-08T09:10Z
Definitive object data (Epoch: 2025-05-08T09:10:25.551Z)
Latitude
-0.00005°
Longitude
108.12426°
Altitude
448.256 km
Speed
7.644 km/s
True Right ascension
07h 28m 44s
True Declination
0° 00' 00"
Sunlit
Object was in daylight at TLE epoch
Visualization TLE readout
Latitude
-49.94599°
Longitude
-13.97674°
Altitude
465.209 km
Speed
7.633 km/s
Apparent Right ascension
01h 55m 57s
Apparent Declination
-51° 10' 29"
Sunlit
Object is in daylight
Visualization observer readout
Local Sidereal Time
16:13:45
Azimuth
126.85° SE
Elevation
-63.693°
Doppler factor
1
Orbital elements
Apogee altitude
448.34 km
Perigee altitude
446.678 km
Semi-major axis
6,825.646 km
Eccentricity
0.0001217
Inclination
53.1608°
RAAN
112.1843°
Arg. of periapsis
97.1146°
True anomaly
262.98586°
Mean anomaly
262.9997°
Eccentric anomaly
262.99278°
Mean motion
3.84882 °/min
BSTAR
0.000017392
Orbital period
93.54 mins
Loading maneuver chart data...
Loading SW <> Apogee altitude chart data...
Loading historical data...
Loading historical data...
Loading historical data...
Loading historical data...
Loading historical data...
Loading historical data...
Loading historical data...

STARLINK-32873 Visibility forecast

Observer location: undefined°, undefined°

Span
Click to sort rows by Start time (UTC) header in descending order
Start Az.
Max El. time (UTC)
Max El. Az.
Max El.
End time (UTC)
End Az.
5 mins2025-05-09 09:04:39.203Z285.257° WNW2025-05-09 09:06:39.203Z238.645° WSW28.619°2025-05-09 09:09:39.203Z164.767° S
4 mins2025-05-10 00:17:39.203Z160.979° S2025-05-10 00:18:39.203Z138.353° SSE19.637°2025-05-10 00:21:39.203Z79.225° E
4 mins2025-05-10 01:54:39.203Z273.322° WNW2025-05-10 01:55:39.203Z304.713° NW32.321°2025-05-10 01:58:39.203Z33.182° NE
4 mins2025-05-10 06:49:39.203Z352.306° N2025-05-10 06:50:39.203Z15.578° NNE20.992°2025-05-10 06:53:39.203Z79.299° E
|